User: anonymous   Login
Location: Wellington
(41.3000°S, 174.7830°E)
Time: 07:11:41
(UTC+13:00)
Language:

BREEZE-M DEB (TANK) - Orbit

View from above orbital plane
View from above orbital plane
View from above satellite
View from above satellite

Ground track
Ground track

The orbit data is extracted from the following two-line orbital elements,

1 31103U 07009B   19295.18769501 +.00000146 +00000-0 +58997-4 0  9990
2 31103 049.4541 018.1267 5503283 085.8216 332.0616 04.76813221213560
Epoch (UTC): 22 October 2019 04:30:16
Eccentricity: 0.5503283
inclination: 49.4541°
perigee height: 327 km
apogee height: 16738 km
right ascension of ascending node: 18.1267°
argument of perigee: 85.8216°
revolutions per day: 4.76813221
mean anomaly at epoch: 332.0616°
orbit number at epoch: 21356

The dashed part of the orbit path shows where the satellite is in the earth's shadow,  

DLR